ONEWEB-0284 (49002 NORAD) Tracking and Keplerian Element Data

This shows tracking and keplerian element data for the satellite.

Feedback or suggestion? Click here.




ElementValue
Catalog49002
NameONEWEB-0284
Epoch Orbit567
Epoch Day211.25001157
Epoch Year2021
RAAN227.4081
Inclination87.4523
Eccentricity0.0008136
Argument of Perigee141.0037
Mean Anonmoly263.6622
Mean Motion14.97423706
Decay Rate-0.01461481
L11 49002U 21060AM 21211.25001157 -.01461481 00000-0 -13778+0 0 9994
L22 49002 87.4523 227.4081 0008136 141.0037 263.6622 14.97423706 5672

Live tracking and technical data element details for ONEWEB-0284 (NORAD 49002). ONEWEB-0284 can be tracked NOW for your location showing map with azimuth and elevation plus other details from your city location.

Track the satellite on the map from your city or location and see movement details for azimuth, elevation, latitude, longitude, range, height, and movement on the map or in text.







IsCatalogInMostPopularTable: catalog: 49002, numindb: 6
Update: records affected: 1



GetName: 49002 ONEWEB-0284

Hit Count: updated at: Sat, 31 Jul 2021 16:29:42 GMT